www.pogodaiklimat.ru

Погода и климат >> Архив погоды >> Индия >> Западная Бенгалия >> Банкура


ПОГОДА в Банкуре

  • Прогноз погоды в Банкуре
  • Монитор погоды в Банкуре

АРХИВ ПОГОДЫ в Банкуре

Время (UTC), дата Ветер
(напр.,м/с)
 
Видим.   Явления Облачность Т
(С)
Тd
(С)
f
(%)
Тe
(С)
Тes
(С)
Комфортность P
(гПа)
Po
(гПа)
Тmin
(С)
Tmax
(С)
R
(мм)
R24
(мм)
S
(см)
21 16.09 Ю 1 2000 м мгла 9/8 300 м
[Frnb Ac trans]
+27.2 +25.8 92 +40 +40 очень
душно
1004.0 994.7
00 17.09 Ю 1 2000 м мгла 10/9 300 м
[St Ac trans]
+26.8 +25.7 94 +40 +40 очень
душно
1004.4 995.1
03 17.09 Ю 1 4000 м 8/8 480 м
[Sc diur, vesp]
+28.2 +25.9 87 +42 +44 опасность
перегрева
1006.4 997.1 +26.5
06 17.09 Ю 1 4000 м 8/8 480 м
[Sc diur, vesp]
+32.6 +25.6 67 +48 +52 опасность
перегрева
1006.4 997.2
09 17.09 ЮВ 1 4000 м мгла 8/8 540 м
[Sc diur, vesp]
+32.6 +24.7 63 +46 +48 опасность
перегрева
1004.0 994.8
12 17.09 Ю 1 2000 м мгла 3/3 540 м
[Sc diur, vesp]
+31.4 +25.5 71 +46 +46 опасность
перегрева
1003.9 994.7 +34.6
15 17.09 Ю 1 2000 м мгла 1/1 540 м
[Sc]
+29.2 +26.1 83 +44 +44 опасность
перегрева
1006.6 997.3
18 17.09 Ю 1 2000 м мгла ясно +27.8 +25.5 87 +41 +41 опасность
перегрева
1007.3 998.0
21 17.09 штиль 0 2000 м мгла ясно +27.0 +25.3 90 +39 +39 очень
душно
1007.0 997.6
00 18.09 штиль 0 2000 м 8/5 500 м
[Sc Ac trans]
+26.6 +25.5 94 +39 +39 очень
душно
1007.4 998.0
03 18.09 ЮВ 1 4000 м 8/6 480 м
[Sc Ac trans]
+28.6 +25.8 85 +43 +45 опасность
перегрева
1009.7 1000.4 +26.3
06 18.09 В 1 4000 м мгла 6/6 540 м
[Sc diur, vesp]
+31.4 +24.9 68 +45 +54 опасность
перегрева
1009.3 1000.1
09 18.09 ЮВ 1 4000 м 5/5 540 м
[Sc diur, vesp]
+33.6 +24.9 60 +47 +53 опасность
перегрева
1006.5 997.3
12 18.09 ЮВ 1 2000 м в посл. час дождь 9/6 450 м
[Sc Ac As]
+26.6 +25.7 95 +39 +39 очень
душно
1007.1 997.7 +34.8 7
15 18.09 Ю 1 2000 м мгла 9/6 450 м
[Cb cap Ac trans]
+27.2 +25.5 90 +40 +40 очень
душно
1009.6 1000.2 7
18 18.09 штиль 0 2000 м мгла 8/4 480 м
[Sc Ac trans]
+27.0 +25.6 92 +40 +40 очень
душно
1009.8 1000.4 7
21 18.09 штиль 0 2000 м мгла 6/5 480 м
[Sc Ac trans]
+26.6 +25.7 95 +39 +39 очень
душно
1008.7 999.3 7
00 19.09 штиль 0 2000 м мгла 4/0
[Ac trans Cs]
+26.2 +25.3 95 +38 +38 очень
душно
1009.1 999.7 7
03 19.09 Ю 1 2000 м мгла 6/5 480 м
[Sc diur, vesp Ac trans]
+28.0 +26.0 89 +42 +47 опасность
перегрева
1010.8 1001.4 +25.9 7
06 19.09 штиль 0 4000 м 6/6 480 м
[Sc diur, vesp]
+31.2 +25.6 72 +46 +56 опасность
перегрева
1009.6 1000.3
09 19.09 Ю 1 4000 м 5/4 540 м
[Sc diur, vesp Ac trans]
+33.4 +24.3 59 +46 +53 опасность
перегрева
1006.6 997.4
12 19.09 штиль 0 2000 м мгла 4/3 500 м
[Sc diur, vesp Ac trans]
+30.8 +25.1 72 +45 +45 опасность
перегрева
1006.8 997.6 +34.1
15 19.09 штиль 0 2000 м мгла 8/5 480 м
[Sc Ac trans]
+28.8 +25.1 80 +42 +42 опасность
перегрева
1009.0 999.7
18 19.09 Ю 1 2000 м мгла 4/3 540 м
[Sc Ac trans]
+28.0 +25.7 87 +41 +41 опасность
перегрева
1008.9 999.6
21 19.09 штиль 0 2000 м мгла 4/3 480 м
[Sc Ac trans]
+27.6 +25.3 87 +40 +40 очень
душно
1008.0 998.7
00 20.09 штиль 0 2000 м мгла 3/1 540 м
[Sc Ac trans]
+26.4 +25.5 95 +39 +39 очень
душно
1008.2 998.8
03 20.09 Ю 1 4000 м 4/4 540 м
[Sc]
+28.0 +25.7 87 +41 +47 опасность
перегрева
1009.9 1000.5 +26.1
06 20.09 Ю 1 4000 м 5/4 540 м
[Sc Ci fib]
+33.2 +24.7 61 +46 +59 опасность
перегрева
1009.0 999.8
09 20.09 В 1 4000 м 5/5 480 м
[Sc diur, vesp]
+34.6 +24.4 56 +47 +53 опасность
перегрева
1006.1 997.0
12 20.09 ЮЗ 1 4000 м 4/0
[Ci fib]
+32.0 +24.6 65 +45 +45 опасность
перегрева
1005.3 996.1 +35.6
15 20.09 штиль 0 2000 м ясно +29.6 +26.0 81 +44 +44 опасность
перегрева
1007.0 997.7
18 20.09 ЮЗ 1 2000 м ясно +28.4 +25.6 85 +42 +42 опасность
перегрева
1007.2 997.9
21 20.09 Ю 1 2000 м ясно +27.4 +25.4 89 +40 +40 очень
душно
1006.9 997.6
00 21.09 Ю 1 2000 м ясно +26.4 +25.3 94 +38 +38 очень
душно
1007.1 997.7
03 21.09 штиль 0 4000 м ясно +28.6 +25.8 85 +43 +54 опасность
перегрева
1008.8 999.5 +26.4
06 21.09 Ю 1 4000 м 4/4 480 м
[Sc diur, vesp]
+33.6 +24.5 59 +46 +59 опасность
перегрева
1008.1 998.9
09 21.09 Ю 1 4000 м 5/5 540 м
[Sc diur, vesp]
+35.4 +25.0 55 +49 +55 опасность
перегрева
1004.1 995.0
12 21.09 Ю 1 2000 м мгла 4/4 540 м
[Sc diur, vesp]
+31.0 +23.8 66 +43 +43 опасность
перегрева
1005.0 995.8 +36.1
15 21.09 Ю 1 2000 м мгла 1/1 540 м
[Sc]
+27.4 +24.5 84 +39 +39 очень
душно
1007.6 998.2
18 21.09 Ю 1 2000 м мгла ясно +26.6 +24.6 89 +38 +38 очень
душно
1008.1 998.7
21 21.09 штиль 0 2000 м мгла ясно +26.2 +25.0 93 +37 +37 очень
душно
1007.9 998.5
00 22.09 штиль 0 2000 м мгла 3/0
[Ac trans Ci fib]
+25.8 +24.6 93 +36 +36 очень
душно
1008.3 998.9
03 22.09 штиль 0 4000 м мгла 1/0
[Ci fib]
+27.8 +24.3 81 +39 +50 очень
душно
1009.9 1000.5 +25.5
06 22.09 В 1 4000 м мгла 3/3 540 м
[Sc]
+32.4 +24.4 63 +45 +60 опасность
перегрева
1009.0 999.8
09 22.09 В 1 4000 м 4/4 540 м
[Sc diur, vesp]
+33.0 +25.1 63 +47 +54 опасность
перегрева
1005.9 996.7
12 22.09 штиль 0 2000 м 4/3 540 м
[Sc diur, vesp Ci fib]
+32.0 +25.5 69 +47 +47 опасность
перегрева
1006.7 997.5 +35.3
15 22.09 Ю 1 2000 м мгла ясно +30.2 +25.7 77 +45 +45 опасность
перегрева
1009.1 999.8
18 22.09 Ю 1 2000 м мгла 8/5 480 м
[Sc Ac trans]
+29.0 +25.6 82 +43 +43 опасность
перегрева
1009.4 1000.1
21 22.09 штиль 0 2000 м мгла 9/6 480 м
[Sc Ac trans]
+27.8 +26.1 90 +42 +42 опасность
перегрева
1009.6 1000.2
00 23.09 штиль 0 2000 м мгла 9/6 480 м
[Sc Ac trans]
+26.8 +25.7 94 +40 +40 очень
душно
1010.1 1000.7
03 23.09 штиль 0 2000 м мгла 9/6 480 м
[Sc Ac trans]
+28.8 +26.3 86 +44 +46 опасность
перегрева
1011.8 1002.5 +26.6
06 23.09 В 1 4000 м мгла 8/8 480 м
[Sc diur, vesp]
+31.8 +25.3 69 +46 +50 опасность
перегрева
1010.4 1001.2
09 23.09 Ю 1 4000 м в посл. час гроза {дождь} 9/8 480 м
[Sc diur, vesp Ac trans]
+28.6 +24.3 78 +40 +42 очень
душно
1007.9 998.6 0.0
12 23.09 В 1 2000 м мгла {гроза, дождь} 8/4 480 м
[Sc diur, vesp Ac trans]
+29.2 +24.6 76 +41 +41 опасность
перегрева
1008.1 998.8 +32.5 0.0
15 23.09 штиль 0 2000 м мгла 5/4 480 м
[Sc Ac trans]
+27.4 +24.5 84 +39 +39 очень
душно
1010.0 1000.6 0.0

 

Местоположение метеостанции Банкура (Западная Бенгалия, Индия): широта 23.25 долгота 87.05 высота над уровнем моря 82 м.

В архиве по умолчанию представлена погода в Банкуре за последнюю неделю. Архивные данные за месяц целиком и за предыдущие месяцы, начиная с января 2011 года, Вы можете получить, выбрав интересующий диапазон дат из раскрывающегося списка и нажав кнопку "Ввод!".


*Определитесь, кто Вы:
робот инопланетянин человек

Внимание! Время в таблицах - всемирное. Для получения местного времени необходимо прибавить поправку, которая равна 5.5 ч.

Смотрите также архив погоды в соседних городах и на ближайших метеорологических станциях:

Погода в Панагаре (Западная Бенгалия, Индия) (46 км)
Погода в Асансоле (Западная Бенгалия, Индия) (48 км)
Погода в Пурулии (Западная Бенгалия, Индия) (65 км)
Погода в Сантиникетане (Западная Бенгалия, Индия) (80 км)
Погода в Бардхамане (Западная Бенгалия, Индия) (82 км)
Погода в Миднапуре (Западная Бенгалия, Индия) (96 км)
Погода в Джамшедпуре (Джаркханд, Индия) (101 км)
Погода в Улуберии (Западная Бенгалия, Индия) (124 км)
Погода в Багати (Западная Бенгалия, Индия) (138 км)
Погода в Чайбасе (Джаркханд, Индия) (148 км)

Пояснения к столбцам:

Ветер - указаны скорость ветра в м/с - средняя за 10 мин, порывы в срок и между сроками (в фигурных скобках) и направление, откуда дует ветер: С - северный, СВ - северо-восточный, В - восточный, ЮВ - юго-восточный, Ю - южный, ЮЗ - юго-западный, З - западный, СЗ - северо-западный.
Видимость - горизонтальная дальность видимости в метрах или километрах. При видимости от 1 до 10 км при отсутствии осадков обычно наблюдается дымка, при ухудшении видимости до 1 км и менее - туман. В сухую погоду видимость может ухудшаться дымом, пылью или мглою.
Явления - указаны атмосферные явления, наблюдавшиеся в срок или в последний час перед сроком; фигурными скобками обозначены явления, наблюдавшиеся между сроками (за 1-3 часа до срока); квадратными скобками обозначены град или гололедные отложения с указанием их диаметра в мм.
Облачность - указаны через наклонную черту общая и нижняя облачность в баллах и высота нижней границы облаков в метрах; квадратными скобками обозначены формы облаков: Ci - перистые, Cs - перисто-слоистые, Cc - перисто-кучевые, Ac - высококучевые, As - высокослоистые, Sc - слоисто-кучевые, Ns - слоисто-дождевые, Cu - кучевые, Cb - кучево-дождевые. Подробнее классификацию облаков см. в Атласе облаков (PDF).
T - Температура воздуха - температура, измеренная на высоте 2 м над землей.
Td - Температура точки росы - температура, при понижении до которой содержащийся в воздухе водяной пар достигнет насыщения.
f - Относительная влажность воздуха - влажноcть воздуха, измеренная на высоте 2 м над землей.
Te - Эффективная температура - температура, которую ощущает одетый по сезону человек в тени. Характеристика душности погоды. При расчете учитывается влияние влажности воздуха и скорости ветра на теплоощущения человека.
Tes - Эффективная температура на солнце - температура, которую ощущает человек, с поправкой на солнечный нагрев. Характеристика знойности погоды. Зависит от высоты солнца над горизонтом, облачности и скорости ветра. Ночью, в пасмурную погоду, а также при ветре 12 м/с и более поправка равна нулю.
P - Атмосферное давление - приведенное к уровню моря атмосферное давление.
Po - Атмосферное давление - измеренное на уровне метеостанции атмосферное давление.
Tmin - Минимальная температура - минимум температуры воздуха на высоте 2 м над землей.
Tmax - Максимальная температура - максимум температуры воздуха на высоте 2 м над землей.
R - Количество осадков - Количество выпавших осадков за период времени, мм. При наведении курсора мыши на число - период времени, за который выпало указанное количество осадков.
R24 - Количество осадков - Количество выпавших осадков за 24 часа, мм.
S - Снежный покров - Высота снежного покрова, см. При наведении курсора мыши на число - состояние снежного покрова и степень покрытия местности в баллах.